{"data":{"norad_id":63588,"epoch":"2026-09-20T10:23:00.906432Z","epoch_age_seconds":158387,"freshness":"FRESH","line1":"1 63588U 25076V   26263.43264938  .00009379  00000+0  34982-3 0  9994","line2":"2 63588  43.0044 301.9015 0001590 273.6839  86.3831 15.27587731 81610","mean_motion":15.27587731,"eccentricity":0.000159,"inclination_deg":43.0044,"raan_deg":301.9015,"arg_perigee_deg":273.6839,"mean_anomaly_deg":86.3831,"bstar":0.00034982,"rev_number":8161,"period_min":94.266271637135,"perigee_km":481.93502183354,"apogee_km":484.1168716506,"semimajor_km":6861.1629467421,"source":"CELESTRAK","updated_at":"2026-09-21T09:00:35.048635Z"}}